Location: Unspecified
(0.0000°N, 0.0000°E)
Time: 21:36:45
(UTC+00:00)

Vanguard 1 Rocket - Visible Passes

Search period start: 17 September 2014 00:00
Search period end: 27 September 2014 00:00
Orbit: 653 x 4228 km, 34.3° (Epoch: 13 September)

Date Brightness Start Highest point End Pass type
(mag) Time Alt. Az. Time Alt. Az. Time Alt. Az.
17 Sep 10.6 03:02:29 11° S 03:05:08 12° S 03:08:15 10° SSE visible
17 Sep 8.9 05:27:54 10° SSW 05:34:43 32° SSE 05:39:13 10° E visible
17 Sep 10.5 17:43:53 10° NW 18:02:12 76° NE 18:28:50 10° ESE visible
17 Sep 10.9 20:13:37 10° WNW 20:36:19 52° SW 20:53:08 25° SSE visible
17 Sep 11.4 22:55:28 10° WSW 23:10:34 22° SSW 23:10:34 22° SSW visible
18 Sep 9.8 04:16:05 10° SSW 04:23:04 21° SSE 04:27:48 10° ESE visible
18 Sep 10.7 18:59:55 10° WNW 19:20:43 70° SW 19:46:53 10° SE visible
18 Sep 11.2 21:35:26 10° W 21:56:49 32° SSW 22:04:42 27° S visible
19 Sep 10.4 03:06:30 14° S 03:10:26 16° SSE 03:15:32 10° SE visible
19 Sep 10.5 17:47:47 10° NW 18:05:46 89° NE 18:32:38 10° SE visible
19 Sep 11.1 20:18:39 10° W 20:40:30 44° SSW 20:58:48 19° SSE visible
19 Sep 11.5 23:02:41 10° WSW 23:16:13 19° SSW 23:16:13 19° SSW visible
20 Sep 10.8 01:59:58 13° SSE 01:59:58 13° SSE 02:02:34 10° SE visible
20 Sep 9.3 04:18:58 10° SSW 04:27:51 31° SSE 04:33:14 10° E visible
20 Sep 10.9 19:04:22 10° WNW 19:24:37 59° SW 19:50:19 10° SE visible
20 Sep 11.3 21:41:50 10° WSW 22:01:52 27° SSW 22:10:13 23° S visible
21 Sep 10.1 03:10:53 18° SSW 03:15:33 23° SSE 03:21:40 10° ESE visible
21 Sep 10.6 17:51:52 10° WNW 18:09:29 78° SW 18:36:13 10° SE visible
21 Sep 11.3 20:24:06 10° W 20:45:03 37° SSW 21:04:08 15° SSE visible
21 Sep 11.5 23:09:41 10° SW 23:21:32 18° SSW 23:21:32 18° SSW visible
22 Sep 10.6 02:04:31 18° SSE 02:04:31 18° SSE 02:09:12 10° SE visible
22 Sep 8.8 04:22:10 10° SW 04:32:27 47° SSE 04:38:09 10° ENE visible
22 Sep 11.1 19:09:09 10° WNW 19:28:47 49° SSW 19:53:43 10° SE visible
22 Sep 11.4 21:48:37 10° WSW 22:07:22 24° SSW 22:15:20 20° S visible
23 Sep 9.7 03:15:38 24° SSW 03:20:28 31° SSE 03:27:10 10° E visible
23 Sep 10.8 17:56:12 10° WNW 18:13:23 66° SW 18:39:39 10° SE visible
23 Sep 11.4 20:30:02 10° W 20:50:00 31° SSW 21:09:00 13° SSE visible
23 Sep 11.5 23:16:01 10° SW 23:26:22 17° SSW 23:26:22 17° SSW visible
24 Sep 10.4 02:09:26 23° SSE 02:09:26 23° SSE 02:15:17 10° ESE visible
24 Sep 8.2 04:26:49 13° SW 04:36:49 70° SE 04:42:41 10° ENE visible
24 Sep 11.3 19:14:18 10° W 19:33:17 41° SSW 19:57:08 10° SE visible
24 Sep 11.4 21:55:31 10° SW 22:13:15 21° SSW 22:19:55 19° S visible
25 Sep 9.3 03:20:41 32° SSW 03:25:10 44° SSE 03:32:13 10° E visible
25 Sep 11.0 18:00:48 10° WNW 18:17:34 54° SSW 18:42:58 10° SE visible
25 Sep 11.5 20:36:23 10° WSW 20:55:23 27° SSW 21:13:21 12° SSE visible
25 Sep 11.5 23:21:25 10° SW 23:30:42 18° SSW 23:30:42 18° SSW visible
26 Sep 10.1 02:14:35 30° SE 02:14:35 30° SE 02:20:53 10° E visible
26 Sep 8.0 04:31:59 17° WSW 04:40:57 80° NW 04:46:56 10° NE visible
26 Sep 11.4 19:19:52 10° W 19:38:09 34° SSW 20:00:41 10° SE visible
26 Sep 11.4 22:02:07 10° SW 22:19:22 21° S 22:24:00 20° S visible
